Regional Weather Roundup
Issued by NWS Upton, NY

Current Version | Previous Version | Graphics & Text | Print | Product List | Glossary Off
Versions: 1 2 3 4 5 6 7 8 9 10 11 12 13 14 15 16 17 18 19 20 21 22 23 24 25 26 27 28 29 30 31 32 33 34 35 36 37 38 39 40 41 42 43 44 45 46 47 48 49 50

000
ASUS41 KOKX 252309
RWROKX

REGIONAL WEATHER ROUNDUP
NATIONAL WEATHER SERVICE NEW YORK NY
700 PM EDT THU MAY 25 2017

NOTE: "FAIR" INDICATES FEW OR NO CLOUDS BELOW 12,000 FEET WITH NO
SIGNIFICANT WEATHER AND/OR OBSTRUCTIONS TO VISIBILITY.

NYZ071-072-176-178-NJZ106-104-260000-
NEW YORK CITY METRO AREA

CITY           SKY/WX    TMP DP  RH WIND       PRES   REMARKS
Central Park   FOG       58  57  97 NE3       29.56F VSB 1
Wall St Helipt CLOUDY    59  57  94 NE9       29.54S
Bronx Bot Gard   N/A     55  54  94 N2        29.54R
LaGuardia APRT DRZL/FOG  57  56  96 NE15      29.53F VSB 3/4
Kennedy INTL   DRZL/FOG  60  60 100 E8        29.54S VSB 1
Breezy Point     N/A     57 N/A N/A E12         N/A
Newark/Liberty DRZL/FOG  57  57 100 N15       29.53F VSB 1
Teterboro      FOG       58  57  97 NE7       29.54S VSB 1
$$

NYZ177-179-078>081-260000-
LONG ISLAND NEW YORK

CITY           SKY/WX    TMP DP  RH WIND       PRES   REMARKS
Jones Beach      N/A     57 N/A N/A E18         N/A
Matinecock PT  NOT AVBL
Farmingdale    FOG       59  59 100 E13       29.53F VSB 1
MacArthur/ISP  FOG       58  58 100 E10       29.54F VSB 1/4
Shirley        FOG       57  57 100 VRB6      29.56F VSB 3/4
Mt Sinai Harb    N/A     55 N/A N/A E9          N/A
Westhampton    LGT RAIN  57  55  93 E12G18    29.58F VSB 3/4
East Hampton   CLOUDY    56  55  97 E9        29.59S FOG
Montauk          N/A     55  55 100 E9        29.61S
$$

NYZ052-065-067-260000-
HUDSON VALLEY

CITY           SKY/WX    TMP DP  RH WIND       PRES   REMARKS
White Plains   DRIZZLE   57  56  96 E12G22    29.55F FOG
Larchmont Harb   N/A     55 N/A N/A NE26        N/A
Croton O-T Hud   N/A     59 N/A N/A N1          N/A
Newburgh       CLOUDY    57  57 100 E8        29.58R FOG
Montgomery     LGT RAIN  59  57  93 NE7       29.56F FOG
Poughkeepsie   CLOUDY    58  54  86 NE6       29.56S
Albany         LGT RAIN  57  54  89 N5        29.61R
$$

NJZ001-105-106-008-010-013-015-019>022-104-260000-
NEW JERSEY

CITY           SKY/WX    TMP DP  RH WIND       PRES   REMARKS
Newark/Liberty DRZL/FOG  57  57 100 N15       29.53F VSB 1
Teterboro      FOG       58  57  97 NE7       29.54S VSB 1
Caldwell       CLOUDY    59  57  93 NE6       29.54F FOG
Somerville     CLOUDY    60  58  92 NE7       29.50F
Linden         CLOUDY    59  58  94 NE7       29.52F FOG
Perth Amboy      N/A     59 N/A N/A E6          N/A
Sussex         CLOUDY    60  59  96 NE8       29.55F
Andover          N/A     60  55  83 NE3       29.53F
Trenton        CLOUDY    59  58  96 NE10      29.48F
Millville      CLOUDY    71  64  78 SE5       29.44S
Atlantic City  PTSUNNY   67  62  84 S8        29.45F
Wrightstown    CLOUDY    63  61  94 NE12      29.45R
Toms River     CLOUDY    64  63  94 E7        29.49R FOG
Belmar         FOG       59  59 100 N7        29.51S VSB 1/4
$$

PAZ047>061-062-071-260000-
EASTERN PENNSYLVANIA

CITY           SKY/WX    TMP DP  RH WIND       PRES   REMARKS
Philadelphia   LGT RAIN  63  61  93 N8        29.46F
Allentown      CLOUDY    63  57  81 E13       29.49F
Scranton       PTSUNNY   63  57  81 E7G20     29.51F
$$

CTZ002-004>006-009-010-012-RIZ004-006-007-MAZ004-011-015-260000-
SOUTHERN NEW ENGLAND
 IN CT

CITY           SKY/WX    TMP DP  RH WIND       PRES   REMARKS
Bradley INTL   LGT RAIN  55  53  93 N12       29.64R FOG
Hartford       CLOUDY    56  55  97 NE6       29.63R FOG
Danbury        LGT RAIN  56  56 100 NE10      29.59S FOG
Wtrbury/Oxford LGT RAIN  55  52  88 E12G17    29.61R FOG
Bridgeport     CLOUDY    59  56  89 E15       29.57F FOG
Meriden        LGT RAIN  56  55  97 N9        29.61R FOG
New Haven      CLOUDY    58  57  97 NE7       29.59F FOG
Chester        LGT RAIN  57  57 100 NE7       29.61R VSB 1
Groton         CLOUDY    58  56  93 NE14      29.60R FOG
Wilimantic     CLOUDY    57  54  89 E7        29.64R

 IN RI

CITY           SKY/WX    TMP DP  RH WIND       PRES   REMARKS
Providence     DRIZZLE   54  54 100 NE10      29.66R FOG
Block Island   LGT RAIN  55  55 100 NE9G17    29.63R VSB 1/2
Westerly       CLOUDY    57  56  96 NE9       29.62R FOG
 IN MA

CITY           SKY/WX    TMP DP  RH WIND       PRES   REMARKS
Boston         LGT RAIN  52  52 100 NE16      29.71R VSB 1
Worcester      CLOUDY    49  47  93 NE12G21   29.67S FOG
Westfield      RAIN      54  54 100 CALM      29.67R FOG
Provincetown   LGT RAIN  52  52 100 E14       29.68R VSB 1
Nantucket      FOG       56  55  97 SE8       29.65R VSB 1/2
$$

ANZ330-335-338-340-345-350-353-355-260000-
COASTAL MARINE OBSERVATIONS


STATION/POSITION TIME  SKY/WX   TEMP    WIND        PRES    VSBY  WAVE
                                AIR SEA DIR/SP/G                  HT/PER
                 (UTC)          (F)     (DEG/KT/KT) (MB)    (MI)  (FT/S)
NY HARB ENTRANCE 2150            56 56   80/ 12/ 14  999.6          6/ 7
20 S FIRE ISLAND 2250            56 54   90/  8/ 10  998.4          5/ 6
GREAT SOUTH BAY  2230            57 63   80/ 17/ 23   N/A
23 SSW MONTAUK P 2250            54 53              1001.8          5/ 6
15 E BARNEGAT LI 2230               57                N/A           5/ 8
HUDSON CANYON    2150            58 54  150/  8/ 10 1000.5          5/ 8
KINGS POINT      2230            57 57   60/  5/  6  999.7
EXECUTION ROCKS  2245            57                   N/A
CENTRAL LI SOUND 2215            55     100/ 16/ 19   N/A           3/ 5
EASTERN LI SOUND NOT AVBL
ROBBINS REEF     2230            58      20/  7/  9 1000.2
$$


>>>>>>>>>>>>>>>>>>>>>>>>>>>> KEY <<<<<<<<<<<<<<<<<<<<<<<<<<<
>                                                          <
>     SKY/WX - Sky Condition/Present Weather               <
>     TMP    - Temperature in Fahrenheit                   <
>     DP     - Dew Point in Fahrenheit                     <
>     RH     - Relative Humidity in Percent                <
>     WIND   - Direction (from) and Speed in MPH           <
>     PRES   - Mean Sea Level Pressure (inches of Hg)      <
>     WCI    - Wind Chill Index                            <
>     VSB    - VISIBILITY IN MILES                         <
>     HX     - HEAT INDEX                                  <
>     TC     - TEMPERATURE IN CELSIUS                      <
>     VRB    - VARIABLE WIND DIRECTION                     <
>                                                          <
>>>>>>>>>>>>>>>>>>>>>>>>>>>> KEY <<<<<<<<<<<<<<<<<<<<<<<<<<<



USA.gov is the U.S. government's official web portal to all federal, state and local government web resources and services.